Weather in Atlasovo

Russia / Kamchatka Krai     55°36′14″N   159°38′16″E
temp.,
°C
wind,
m/s
gust,
m/s
humid.,
%
clouds,
%
prec.,
mm/h
press.,
hPa
HPBL,
m
28 february, sun
sun2800:00−14nne369392 0.0 1014130
03:00−15n4695100 0.0 1013169
06:00−15n3694100 0.0 1012164
09:00−16n4794100 0.0 1011271
12:00−14n3695100 0.1 1007378
15:00−12nnw3593100 0.1 1003387
18:00−12nnw4793100 0.1 999452
21:00−14nw2595100 0.1 997206
1 march, mon
mon100:00−13nw3893100 0.2 995376
03:00−13nnw61189100 0.2 994640
06:00−12nnw81383100 0.5 995905
09:00−13nnw31289100 0.2 996578
12:00−10w2482100 0.2 995638
15:00−8sw1280100 0.1 995559
18:00−9s1293100 0.3 995198
21:00−11ese1196100 0.4 99825
2 march, tue
tue200:00−11se0197100 0.7 100021
03:00−11wnw1197100 0.6 100329
06:00−11n1197100 1.4 100648
09:00−13nnw1195100 0.6 1010118
12:00−11wnw1287100 0.9 1013388
15:00−9n1187100 0.3 1015374
18:00−10e1290100 0.5 1018102
21:00−14s228423 0.0 102325
3 march, wed
wed300:00−14s378038 0.0 1026133
03:00−16sse1181100 0.0 102720
06:00−15n1185100 0.0 102620
09:00−15nne1292100 0.1 1023127
12:00−13nne3495100 0.4 1016272
15:00−13nne5794100 0.2 1006360
18:00−13nne5796100 0.9 998261
21:00−13nne4797100 2.8 989205
4 march, thu
thu400:00−8nne3699100 6.3 977196
03:00−9ssw111987100 3.4 974887
06:00−11sw9176460 3.5 982723
09:00−13sw297933 0.0 989481
12:00−12wsw11146167 0.1 9941664
15:00−11wsw9186022 0.0 9992337
18:00−10sw8186629 0.0 10021895
21:00−12s497742 0.0 1001204